EW3711 Weather Reports


time (UTC)temp
C
wind
direction
speed
KPH
gust
KPH
rain 1hr
cm
rain 24hr
cm
rain mn
cm
humidity
%
barometer
mb
20260504035423 8 242 22.5 46.7 0.00 0.00 0.00 74 996.2
20260504034919 8 252 22.5 40.2 0.00 0.00 0.00 73 996.2
20260504034417 8 274 24.1 43.5 0.00 0.00 0.00 71 995.8
20260504033914 9 299 24.1 43.5 0.00 0.00 0.00 71 995.8
20260504033411 9 167 22.5 43.5 0.00 0.00 0.00 71 995.8
20260504032908 10 214 24.1 46.7 0.00 0.00 0.00 70 995.8
20260504032405 10 242 27.4 49.9 0.00 0.00 0.00 70 995.8
20260504031902 10 221 29.0 54.7 0.00 0.00 0.00 69 995.8
20260504031359 10 238 27.4 54.7 0.00 0.00 0.00 69 995.8
20260504030855 11 278 25.7 45.1 0.00 0.00 0.00 68 995.4
20260504030353 11 238 25.7 46.7 0.00 0.00 0.00 66 995.1
20260504025849 12 209 24.1 46.7 0.00 0.00 0.00 63 994.7
20260504025346 12 294 22.5 40.2 0.00 0.00 0.00 62 994.7
20260504024842 12 234 17.7 37.0 0.00 0.00 0.00 66 994.7
20260504024339 12 211 12.9 33.8 0.00 0.00 0.00 72 994.7
20260504023836 12 242 11.3 17.7 0.00 0.00 0.00 74 994.1
20260504023333 13 250 9.7 17.7 0.00 0.00 0.00 73 994.4
20260504022828 13 212 8.0 16.1 0.00 0.00 0.00 70 994.1
20260504022326 13 235 4.8 14.5 0.00 0.00 0.00 69 994.1
20260504021822 14 214 3.2 9.7 0.00 0.00 0.00 66 993.6
20260504021320 15 199 6.4 17.7 0.00 0.00 0.00 62 993.6
20260504020816 15 203 9.7 22.5 0.00 0.00 0.00 58 993.6
20260504020313 15 223 9.7 25.7 0.00 0.00 0.00 59 993.6
20260504015809 15 240 9.7 25.7 0.00 0.00 0.00 59 994.1
20260504015305 15 229 11.3 20.9 0.00 0.00 0.00 60 994.1
20260504014801 15 214 12.9 24.1 0.00 0.00 0.00 60 994.1
20260504014258 16 212 14.5 25.7 0.00 0.00 0.00 55 994.1
20260504013756 16 233 6.4 25.7 0.00 0.00 0.00 52 994.4
20260504013253 16 238 0.0 0.0 0.00 0.00 0.00 52 994.1
20260504012749 15 195 0.0 0.0 0.00 0.00 0.00 55 994.4
20260504012247 15 188 0.0 0.0 0.00 0.00 0.00 54 994.4
20260504011744 16 167 0.0 0.0 0.00 0.00 0.00 52 994.1
20260504011241 16 167 0.0 0.0 0.00 0.00 0.00 51 994.1
20260504010737 16 202 0.0 0.0 0.00 0.00 0.00 52 994.1
20260504010232 16 190 0.0 0.0 0.00 0.00 0.00 52 994.4
20260504005730 16 206 1.6 6.4 0.00 0.00 0.00 52 994.4
20260504005227 16 206 1.6 8.0 0.00 0.00 0.00 52 994.7
20260504004724 16 204 0.0 8.0 0.00 0.00 0.00 51 994.7
20260504004221 16 206 0.0 0.0 0.00 0.00 0.00 51 994.7
20260504003718 16 204 0.0 0.0 0.00 0.00 0.00 52 994.7
20260504003215 16 188 0.0 0.0 0.00 0.00 0.00 51 994.7
20260504002712 16 203 0.0 0.0 0.00 0.00 0.00 51 994.7
20260504002209 16 203 0.0 0.0 0.00 0.00 0.00 52 995.1
20260504001707 16 200 1.6 9.7 0.00 0.00 0.00 51 995.4
20260504001203 16 221 4.8 9.7 0.00 0.00 0.00 50 995.4
20260504000659 17 230 6.4 12.9 0.00 0.00 0.00 50 995.4
20260504000157 17 240 8.0 16.1 0.00 0.00 0.00 50 995.8
20260503235655 17 227 8.0 16.1 0.00 0.00 0.00 50 995.8
20260503235151 17 252 6.4 16.1 0.00 0.00 0.00 50 995.8
20260503234649 17 225 8.0 17.7 0.00 0.00 0.00 50 995.8
20260503234147 17 246 11.3 29.0 0.00 0.00 0.00 50 995.8
20260503233644 17 262 14.5 29.0 0.00 0.00 0.00 50 996.2
20260503233139 17 283 16.1 29.0 0.00 0.00 0.00 50 996.5
20260503232637 17 262 16.1 33.8 0.00 0.00 0.00 48 996.5
20260503232134 18 236 19.3 38.6 0.00 0.00 0.00 45 996.2
20260503231632 19 284 20.9 38.6 0.00 0.00 0.00 39 996.2
20260503231128 21 211 17.7 30.6 0.00 0.00 0.00 31 996.2
20260503230625 21 180 19.3 32.2 0.00 0.00 0.00 29 996.2
20260503230122 21 201 22.5 45.1 0.00 0.00 0.00 28 996.2
20260503225620 21 122 24.1 45.1 0.00 0.00 0.00 28 996.2
20260503225119 21 210 25.7 45.1 0.00 0.00 0.00 28 996.2
20260503224617 21 210 25.7 46.7 0.00 0.00 0.00 27 996.2
20260503224115 22 201 25.7 46.7 0.00 0.00 0.00 26 996.5
20260503223612 22 217 27.4 45.1 0.00 0.00 0.00 28 996.5
20260503223108 22 311 25.7 48.3 0.00 0.00 0.00 26 996.5
20260503222606 21 227 27.4 49.9 0.00 0.00 0.00 26 996.5
20260503222104 21 214 25.7 49.9 0.00 0.00 0.00 27 996.5
20260503221602 21 204 29.0 49.9 0.00 0.00 0.00 27 996.9
20260503221059 22 208 27.4 51.5 0.00 0.00 0.00 26 996.9
20260503220555 22 220 25.7 51.5 0.00 0.00 0.00 26 996.9
20260503220052 22 247 25.7 49.9 0.00 0.00 0.00 25 997.2
20260503215549 22 226 25.7 49.9 0.00 0.00 0.00 25 997.2
20260503215046 22 217 25.7 48.3 0.00 0.00 0.00 25 997.2
20260503214544 22 204 25.7 48.3 0.00 0.00 0.00 25 997.2
20260503214040 22 202 24.1 43.5 0.00 0.00 0.00 25 997.2
20260503213539 22 208 24.1 43.5 0.00 0.00 0.00 25 997.6
20260503213035 21 203 25.7 49.9 0.00 0.00 0.00 25 997.6
20260503212533 21 179 27.4 49.9 0.00 0.00 0.00 26 997.9
20260503212030 21 210 30.6 49.9 0.00 0.00 0.00 26 997.9
20260503211527 21 124 30.6 49.9 0.00 0.00 0.00 25 997.9
20260503211022 21 161 30.6 49.9 0.00 0.00 0.00 25 998.3
20260503210520 21 207 29.0 49.9 0.00 0.00 0.00 26 998.3
20260503210015 22 186 25.7 46.7 0.00 0.00 0.00 25 998.3
20260503205512 21 198 22.5 45.1 0.00 0.00 0.00 25 998.3
20260503205009 21 41 22.5 48.3 0.00 0.00 0.00 25 998.7
20260503204506 20 206 24.1 48.3 0.00 0.00 0.00 27 999.0
20260503204002 20 217 24.1 43.5 0.00 0.00 0.00 27 999.0
20260503203500 20 203 22.5 38.6 0.00 0.00 0.00 27 999.4
20260503202956 20 218 19.3 38.6 0.00 0.00 0.00 28 999.4
20260503202454 20 209 20.9 40.2 0.00 0.00 0.00 30 999.7
20260503201953 20 136 19.3 40.2 0.00 0.00 0.00 29 999.7
20260503201450 20 204 17.7 37.0 0.00 0.00 0.00 29 999.7
20260503200947 20 219 22.5 38.6 0.00 0.00 0.00 29 1000.0
20260503200443 20 184 24.1 40.2 0.00 0.00 0.00 29 1000.0
20260503195940 20 192 25.7 45.1 0.00 0.00 0.00 28 1000.0
20260503195438 21 158 29.0 56.3 0.00 0.00 0.00 27 1000.5
20260503194934 21 205 27.4 56.3 0.00 0.00 0.00 27 1000.5
20260503194431 21 212 27.4 49.9 0.00 0.00 0.00 26 1000.5
20260503193926 21 199 29.0 49.9 0.00 0.00 0.00 28 1000.5
20260503193422 21 203 25.7 49.9 0.00 0.00 0.00 28 1000.5
20260503192917 20 173 24.1 37.0 0.00 0.00 0.00 32 1001.1
20260503192414 20 210 24.1 38.6 0.00 0.00 0.00 33 1001.5
20260503191910 20 173 24.1 38.6 0.00 0.00 0.00 32 1001.5
20260503191408 20 179 24.1 38.6 0.00 0.00 0.00 33 1001.8
20260503190903 20 172 24.1 41.8 0.00 0.00 0.00 34 1001.8
20260503190401 19 195 24.1 41.8 0.00 0.00 0.00 34 1002.2
20260503185858 19 203 25.7 46.7 0.00 0.00 0.00 35 1002.2
20260503185354 19 183 27.4 46.7 0.00 0.00 0.00 35 1002.2
20260503184854 19 172 27.4 51.5 0.00 0.00 0.00 35 1002.5
20260503184350 19 195 25.7 51.5 0.00 0.00 0.00 33 1002.5
20260503183846 19 188 24.1 49.9 0.00 0.00 0.00 35 1002.9
20260503183344 19 183 24.1 46.7 0.00 0.00 0.00 34 1002.9
20260503182841 18 195 25.7 46.7 0.00 0.00 0.00 35 1003.3
20260503182340 18 171 25.7 51.5 0.00 0.00 0.00 35 1003.3
20260503181837 18 199 27.4 51.5 0.00 0.00 0.00 36 1003.6
20260503181334 18 235 25.7 43.5 0.00 0.00 0.00 37 1003.6
20260503180830 18 160 24.1 43.5 0.00 0.00 0.00 37 1003.6
20260503180328 18 175 24.1 41.8 0.00 0.00 0.00 37 1004.0
20260503175824 18 159 25.7 41.8 0.00 0.00 0.00 36 1004.0
20260503175323 18 184 24.1 43.5 0.00 0.00 0.00 38 1004.3
20260503174817 18 144 22.5 43.5 0.00 0.00 0.00 38 1004.3
20260503174316 17 174 20.9 38.6 0.00 0.00 0.00 38 1004.6
20260503173811 17 342 19.3 35.4 0.00 0.00 0.00 38 1005.1
20260503173308 17 177 17.7 35.4 0.00 0.00 0.00 39 1005.1
20260503172804 17 176 19.3 38.6 0.00 0.00 0.00 39 1005.4
20260503172304 17 244 20.9 38.6 0.00 0.00 0.00 40 1005.4
20260503171758 17 179 20.9 35.4 0.00 0.00 0.00 39 1005.7
20260503171255 16 166 22.5 35.4 0.00 0.00 0.00 39 1005.7
20260503170752 16 243 20.9 37.0 0.00 0.00 0.00 42 1005.7
20260503170249 16 207 19.3 37.0 0.00 0.00 0.00 40 1005.7
20260503160211 15 210 12.9 29.0 0.00 0.00 0.00 42 1007.2
20260503150641 13 212 11.3 25.7 0.00 0.00 0.00 48 1007.9
20260503150137 13 258 9.7 25.7 0.00 0.00 0.00 46 1007.9
20260503131031 5 229 8.0 17.7 0.00 0.00 0.00 75 1009.3
20260503130528 5 196 4.8 12.9 0.00 0.00 0.00 76 1009.3
20260503110419 0 202 0.0 3.2 0.00 0.00 0.00 85 1009.7
20260503090304 1 193 0.0 0.0 0.00 0.00 0.00 75 1010.0
20260503081237 1 210 0.0 0.0 0.00 0.00 0.00 73 1010.0
20260503080732 1 229 0.0 0.0 0.00 0.00 0.00 71 1010.0
20260503080229 1 264 0.0 0.0 0.00 0.00 0.00 69 1010.0
20260503072707 1 252 0.0 0.0 0.00 0.00 0.00 73 1010.3
20260503072203 1 255 0.0 0.0 0.00 0.00 0.00 73 1010.3
20260503071700 1 233 0.0 0.0 0.00 0.00 0.00 73 1010.3
20260503071157 1 259 0.0 0.0 0.00 0.00 0.00 72 1010.3
20260503070653 1 272 0.0 0.0 0.00 0.00 0.00 74 1010.3
20260503070152 1 267 0.0 0.0 0.00 0.00 0.00 74 1010.3
20260503060116 4 279 3.2 11.3 0.00 0.00 0.00 65 1010.3
20260503055108 4 277 3.2 9.7 0.00 0.00 0.00 66 1010.3
20260503054603 3 276 3.2 9.7 0.00 0.00 0.00 67 1010.3
20260503054100 3 288 4.8 9.7 0.00 0.00 0.00 68 1010.3
20260503053558 4 239 4.8 11.3 0.00 0.00 0.00 67 1010.3
20260503053056 5 242 6.4 12.9 0.00 0.00 0.00 67 1010.3
20260503052552 4 279 6.4 12.9 0.00 0.00 0.00 68 1010.3
20260503052049 4 297 4.8 12.9 0.00 0.00 0.00 70 1010.3
20260503051544 3 300 1.6 8.0 0.00 0.00 0.00 75 1010.3
20260503051043 3 283 0.0 8.0 0.00 0.00 0.00 78 1010.3
20260503050538 3 254 0.0 0.0 0.00 0.00 0.00 79 1010.3
20260503050036 3 274 0.0 0.0 0.00 0.00 0.00 79 1010.3
20260503045532 3 261 0.0 0.0 0.00 0.00 0.00 79 1010.3
20260503045030 3 269 0.0 0.0 0.00 0.00 0.00 78 1010.3
20260503044526 3 248 0.0 0.0 0.00 0.00 0.00 77 1010.3
20260503044024 4 255 0.0 0.0 0.00 0.00 0.00 75 1010.3
20260503043520 5 263 0.0 0.0 0.00 0.00 0.00 73 1010.3
20260503043017 5 255 1.6 9.7 0.00 0.00 0.00 72 1010.3
20260503042514 6 257 4.8 9.7 0.00 0.00 0.00 71 1010.3
20260503042010 6 272 6.4 9.7 0.00 0.00 0.00 71 1010.3
20260503041507 6 269 4.8 9.7 0.00 0.00 0.00 70 1010.3
20260503041005 7 291 3.2 9.7 0.00 0.00 0.00 68 1010.3
20260503040502 7 278 4.8 14.5 0.00 0.00 0.00 65 1010.3
20260503035958 8 295 8.0 14.5 0.00 0.00 0.00 62 1010.0